VK3BYD-3 Weather Reports


Display with metric or nautical units.
time (UTC)temp
F
wind
direction
speed
MPH
gust
MPH
rain 1hr
in
rain 24hr
in
rain mn
in
humidity
%
barometer
mb
20260504060138 63 31 2.0 7.0 0.00 1.17 0.03 70 1013.3
20260504050138 64 18 2.0 8.0 0.00 1.31 0.03 70 1013.1
20260504044637 65 63 2.0 7.0 0.00 1.31 0.03 67 1013.1
20260504043138 67 22 2.0 8.0 0.00 1.31 0.03 63 1013.0
20260504041638 67 22 3.0 8.0 0.00 1.31 0.03 66 1013.0
20260504040138 64 318 3.0 9.0 0.00 1.31 0.03 72 1013.2
20260504034637 65 52 2.0 9.0 0.00 1.32 0.03 67 1013.3
20260504033138 64 59 2.0 8.0 0.00 1.32 0.03 71 1013.4
20260504031637 64 311 3.0 9.0 0.00 1.32 0.03 70 1013.6
20260504030138 65 274 3.0 11.0 0.00 1.33 0.03 70 1013.8
20260504024637 66 319 3.0 8.0 0.00 1.33 0.03 68 1013.9
20260504023138 66 65 2.0 8.0 0.00 1.35 0.03 70 1014.1
20260504021637 65 29 3.0 9.0 0.00 1.35 0.03 71 1014.3
20260504020137 65 249 2.0 9.0 0.00 1.35 0.03 70 1014.5
20260504014634 64 20 3.0 8.0 0.00 1.35 0.03 74 1014.6
20260504013134 63 339 2.0 8.0 0.00 1.35 0.03 77 1014.9
20260504011634 63 308 2.0 8.0 0.00 1.36 0.03 78 1015.0
20260504010134 62 46 2.0 9.0 0.00 1.36 0.03 78 1015.1
20260504004631 61 24 3.0 9.0 0.00 1.36 0.03 82 1015.2
20260504003125 61 276 2.0 6.0 0.00 1.36 0.03 83 1015.2
20260504001626 58 27 1.0 7.0 0.00 1.37 0.03 87 1015.3
20260504000126 59 259 2.0 7.0 0.00 1.37 0.03 87 1015.4
20260503234625 58 302 2.0 6.0 0.00 1.37 0.03 90 1015.4
20260503233126 57 27 2.0 7.0 0.00 1.37 0.03 92 1015.4
20260503231621 57 308 2.0 7.0 0.00 1.37 0.03 96 1015.4
20260503230119 56 345 1.0 5.0 0.00 1.37 0.03 98 1015.4
20260503224617 55 5 1.0 5.0 0.00 1.37 0.03 98 1015.3
20260503223117 54 311 1.0 4.0 0.00 1.38 0.03 98 1015.3
20260503221617 54 44 1.0 3.0 0.00 1.38 0.03 99 1015.1
20260503220113 54 23 0.0 3.0 0.00 1.38 0.03 99 1015.1
20260503214614 52 25 0.0 2.0 0.00 1.38 0.03 99 1015.0
20260503213113 51 342 0.0 0.0 0.01 1.38 0.03 99 1014.8
20260503211611 51 331 0.0 0.0 0.01 1.38 0.03 98 1014.9
20260503210109 51 331 0.0 0.0 0.01 1.38 0.03 98 1015.0
20260503204603 51 331 0.0 0.0 0.01 1.41 0.03 98 1014.8
20260503203103 51 331 0.0 0.0 0.00 1.41 0.02 98 1014.5
20260503201603 51 332 0.0 1.0 0.00 1.41 0.02 98 1014.4
20260503194608 51 289 0.0 0.0 0.00 1.41 0.02 98 1013.9
20260503193103 51 289 0.0 1.0 0.00 1.41 0.02 98 1013.9
20260503191604 51 289 0.0 0.0 0.00 1.41 0.02 98 1013.8
20260503190109 51 289 0.0 0.0 0.00 1.41 0.02 98 1014.1
20260503184603 50 289 0.0 0.0 0.00 1.41 0.02 98 1014.2
20260503183100 50 289 0.0 0.0 0.00 1.41 0.02 98 1014.3
20260503181600 50 289 0.0 1.0 0.00 1.41 0.02 99 1014.4
20260503180056 49 79 0.0 1.0 0.00 1.41 0.02 99 1014.3
20260503174557 48 79 0.0 0.0 0.00 1.41 0.02 98 1014.3
20260503173058 47 79 0.0 0.0 0.00 1.41 0.02 97 1014.3
20260503171555 48 79 0.0 0.0 0.00 1.41 0.02 98 1014.0
20260503081522 61 34 3.0 11.0 0.50 0.81 0.81 95 1014.3
20260503071520 65 357 3.0 11.0 0.02 0.31 0.31 92 1011.9